When you browse on this site, cookies collect data to enhance your experience and personalize the content and advertising you see.
Visit our Privacy Policy to learn more. By continuing to use the site, you agree to this use of cookies and data.
  • En España
  • Lista de países
  • Para 7 días
  • Temperatura del agua
  • El tiempo en el mapa
  • Informadores
  • user-avatar
    Iniciar sesión

    Tiempo cada hora Yeovil

    Hoy, 22 Febrero, Sábado

    Tiempo Temperatura Precipitaciones Viento Presión Humedad
    00:00 +6°C° 0 mm 11 mps 757 mmHg 83%
    01:00 +7°C° 0 mm 11 mps 756 mmHg 83%
    02:00 +7°C° 0 mm 11 mps 755 mmHg 83%
    03:00 +8°C° 0 mm 12 mps 754 mmHg 83%
    04:00 +8°C° 0.2 mm 11 mps 754 mmHg 85%
    05:00 +8°C° 0.2 mm 11 mps 755 mmHg 87%
    06:00 +9°C° 0.2 mm 11 mps 755 mmHg 89%
    07:00 +9°C° 0.1 mm 10 mps 755 mmHg 88%
    08:00 +9°C° 0.1 mm 10 mps 755 mmHg 87%
    09:00 +9°C° 0.1 mm 10 mps 756 mmHg 87%
    10:00 +9°C° 0 mm 10 mps 756 mmHg 82%
    11:00 +9°C° 0 mm 10 mps 757 mmHg 78%
    12:00 +9°C° 0 mm 11 mps 758 mmHg 73%
    13:00 +8°C° 0 mm 10 mps 758 mmHg 73%
    14:00 +8°C° 0 mm 9 mps 758 mmHg 74%
    15:00 +8°C° 0 mm 9 mps 758 mmHg 74%
    16:00 +7°C° 0 mm 8 mps 759 mmHg 75%
    17:00 +8°C° 0 mm 7 mps 759 mmHg 77%
    18:00 +6°C° 0 mm 7 mps 759 mmHg 78%
    19:00 +7°C° 0 mm 6 mps 759 mmHg 80%
    20:00 +7°C° 0 mm 6 mps 760 mmHg 81%
    21:00 +5°C° 0 mm 6 mps 760 mmHg 83%
    22:00 +7°C° 0.1 mm 6 mps 760 mmHg 85%
    23:00 +7°C° 0.1 mm 6 mps 759 mmHg 88%

    Mañana, 23 Febrero, Domingo

    Tiempo Temperatura Precipitaciones Viento Presión Humedad
    00:00 +6°C° 0.1 mm 7 mps 759 mmHg 91%
    01:00 +6°C° 0.5 mm 7 mps 758 mmHg 92%
    02:00 +7°C° 0.5 mm 8 mps 756 mmHg 94%
    03:00 +7°C° 0.5 mm 9 mps 755 mmHg 95%
    04:00 +8°C° 0.1 mm 10 mps 754 mmHg 93%
    05:00 +9°C° 0.1 mm 11 mps 754 mmHg 91%
    06:00 +10°C° 0.1 mm 12 mps 753 mmHg 89%
    07:00 +10°C° 0 mm 12 mps 753 mmHg 88%
    08:00 +10°C° 0 mm 12 mps 753 mmHg 88%
    09:00 +10°C° 0 mm 12 mps 753 mmHg 87%
    10:00 +11°C° 0.1 mm 11 mps 754 mmHg 88%
    11:00 +11°C° 0.1 mm 10 mps 754 mmHg 88%
    12:00 +11°C° 0.1 mm 10 mps 755 mmHg 88%
    13:00 +10°C° 0 mm 9 mps 756 mmHg 85%
    14:00 +10°C° 0 mm 8 mps 756 mmHg 81%
    15:00 +9°C° 0 mm 7 mps 757 mmHg 77%
    16:00 +8°C° 0 mm 6 mps 758 mmHg 78%
    17:00 +7°C° 0 mm 4 mps 759 mmHg 79%
    18:00 +7°C° 0 mm 3 mps 760 mmHg 80%
    19:00 +7°C° 0 mm 2 mps 760 mmHg 78%
    20:00 +7°C° 0 mm 1 mps 760 mmHg 77%
    21:00 +7°C° 0 mm 1 mps 761 mmHg 75%
    22:00 +6°C° 0 mm 2 mps 760 mmHg 76%
    23:00 +5°C° 0 mm 3 mps 760 mmHg 77%

    Pasado mañana, 24 Febrero, Lunes

    Tiempo Temperatura Precipitaciones Viento Presión Humedad
    00:00 +5°C° 0 mm 4 mps 760 mmHg 78%
    01:00 +6°C° 0.1 mm 5 mps 759 mmHg 84%
    02:00 +7°C° 0.1 mm 6 mps 758 mmHg 90%
    03:00 +8°C° 0.1 mm 7 mps 757 mmHg 95%
    04:00 +8°C° 0 mm 7 mps 756 mmHg 94%
    05:00 +7°C° 0 mm 8 mps 755 mmHg 92%
    06:00 +8°C° 0 mm 9 mps 754 mmHg 90%
    07:00 +8°C° 0 mm 10 mps 754 mmHg 89%
    08:00 +8°C° 0 mm 10 mps 753 mmHg 88%
    09:00 +8°C° 0 mm 11 mps 752 mmHg 86%
    10:00 +8°C° 0.1 mm 11 mps 752 mmHg 87%
    11:00 +8°C° 0.1 mm 11 mps 751 mmHg 87%
    12:00 +8°C° 0.1 mm 10 mps 751 mmHg 87%
    13:00 +8°C° 0.3 mm 10 mps 750 mmHg 86%
    14:00 +7°C° 0.3 mm 9 mps 750 mmHg 85%
    15:00 +7°C° 0.3 mm 9 mps 750 mmHg 84%
    16:00 +6°C° 0 mm 8 mps 750 mmHg 83%
    17:00 +5°C° 0 mm 8 mps 750 mmHg 81%
    18:00 +4°C° 0 mm 8 mps 750 mmHg 80%
    19:00 +4°C° 0 mm 8 mps 750 mmHg 78%
    20:00 +4°C° 0 mm 8 mps 750 mmHg 76%
    21:00 +4°C° 0 mm 8 mps 751 mmHg 74%
    22:00 +4°C° 0 mm 8 mps 750 mmHg 75%
    23:00 +3°C° 0 mm 7 mps 750 mmHg 75%

    25 Febrero, Martes

    Tiempo Temperatura Precipitaciones Viento Presión Humedad
    00:00 +3°C° 0 mm 7 mps 750 mmHg 76%
    01:00 +3°C° 0 mm 7 mps 750 mmHg 78%
    02:00 +2°C° 0 mm 7 mps 749 mmHg 79%
    03:00 +2°C° 0 mm 6 mps 749 mmHg 81%
    04:00 +2°C° 0.1 mm 6 mps 749 mmHg 83%
    05:00 +2°C° 0.1 mm 6 mps 749 mmHg 84%
    06:00 +2°C° 0.1 mm 6 mps 748 mmHg 86%
    07:00 +2°C° 0.1 mm 7 mps 748 mmHg 85%
    08:00 +3°C° 0.1 mm 7 mps 748 mmHg 85%
    09:00 +3°C° 0.1 mm 7 mps 747 mmHg 85%
    10:00 +4°C° 0.2 mm 7 mps 747 mmHg 82%
    11:00 +4°C° 0.2 mm 8 mps 747 mmHg 80%
    12:00 +5°C° 0.2 mm 8 mps 746 mmHg 77%
    13:00 +5°C° 0.4 mm 9 mps 746 mmHg 77%
    14:00 +3°C° 0.4 mm 10 mps 745 mmHg 77%
    15:00 +3°C° 0.4 mm 11 mps 745 mmHg 77%
    16:00 +2°C° 0.1 mm 10 mps 745 mmHg 77%
    17:00 +1°C° 0.1 mm 9 mps 745 mmHg 77%
    18:00 0°C° 0.1 mm 8 mps 744 mmHg 77%
    19:00 0°C° 0.1 mm 8 mps 745 mmHg 78%
    20:00 0°C° 0.1 mm 8 mps 745 mmHg 80%
    21:00 -1°C° 0.1 mm 8 mps 745 mmHg 81%
    22:00 -1°C° 0.3 mm 8 mps 745 mmHg 83%
    23:00 -1°C° 0.3 mm 9 mps 745 mmHg 85%

    26 Febrero, Miércoles

    Tiempo Temperatura Precipitaciones Viento Presión Humedad
    00:00 -3°C° 0.3 mm 9 mps 745 mmHg 86%
    01:00 -3°C° 0.2 mm 9 mps 745 mmHg 83%
    02:00 -3°C° 0.2 mm 9 mps 745 mmHg 80%
    03:00 -4°C° 0.2 mm 8 mps 746 mmHg 77%
    04:00 -4°C° 0.2 mm 8 mps 746 mmHg 81%
    05:00 -2°C° 0.2 mm 8 mps 747 mmHg 84%
    06:00 -2°C° 0.2 mm 8 mps 747 mmHg 88%
    07:00 -2°C° 0 mm 8 mps 748 mmHg 83%
    08:00 -1°C° 0 mm 8 mps 749 mmHg 79%
    09:00 0°C° 0 mm 8 mps 749 mmHg 74%
    10:00 +1°C° 0.1 mm 9 mps 750 mmHg 74%
    11:00 +2°C° 0.1 mm 10 mps 751 mmHg 73%
    12:00 +3°C° 0.1 mm 10 mps 751 mmHg 72%
    13:00 +3°C° 0 mm 10 mps 752 mmHg 69%
    14:00 +3°C° 0 mm 9 mps 752 mmHg 67%
    15:00 +3°C° 0 mm 9 mps 753 mmHg 64%
    16:00 +3°C° 0 mm 7 mps 753 mmHg 67%
    17:00 +2°C° 0 mm 6 mps 753 mmHg 70%
    18:00 +1°C° 0 mm 5 mps 754 mmHg 73%
    19:00 0°C° 0 mm 4 mps 754 mmHg 75%
    20:00 0°C° 0 mm 4 mps 754 mmHg 78%
    21:00 +1°C° 0 mm 3 mps 754 mmHg 80%
    22:00 +1°C° 0 mm 3 mps 754 mmHg 78%
    23:00 +2°C° 0 mm 3 mps 754 mmHg 77%

    27 Febrero, Jueves

    Tiempo Temperatura Precipitaciones Viento Presión Humedad
    00:00 +2°C° 0 mm 3 mps 753 mmHg 75%
    01:00 +1°C° 0.3 mm 4 mps 753 mmHg 81%
    02:00 +3°C° 0.3 mm 4 mps 752 mmHg 87%
    03:00 +3°C° 0.3 mm 4 mps 751 mmHg 93%
    04:00 +2°C° 1.2 mm 5 mps 750 mmHg 94%
    05:00 +2°C° 1.2 mm 6 mps 749 mmHg 95%
    06:00 +2°C° 1.2 mm 7 mps 747 mmHg 96%
    07:00 +3°C° 1.3 mm 7 mps 746 mmHg 96%
    08:00 +3°C° 1.3 mm 7 mps 746 mmHg 96%
    09:00 +4°C° 1.3 mm 7 mps 745 mmHg 96%
    10:00 +5°C° 0.7 mm 8 mps 744 mmHg 95%
    11:00 +7°C° 0.7 mm 8 mps 744 mmHg 94%
    12:00 +9°C° 0.7 mm 8 mps 743 mmHg 93%
    13:00 +9°C° 0.1 mm 8 mps 742 mmHg 92%
    14:00 +8°C° 0.1 mm 9 mps 742 mmHg 92%
    15:00 +8°C° 0.1 mm 9 mps 741 mmHg 91%
    16:00 +8°C° 0.1 mm 10 mps 741 mmHg 90%
    17:00 +8°C° 0.1 mm 10 mps 741 mmHg 89%
    18:00 +8°C° 0.1 mm 10 mps 741 mmHg 88%
    19:00 +7°C° 0 mm 10 mps 742 mmHg 86%
    20:00 +7°C° 0 mm 10 mps 742 mmHg 84%
    21:00 +6°C° 0 mm 10 mps 743 mmHg 82%
    22:00 +5°C° 0 mm 10 mps 743 mmHg 81%
    23:00 +5°C° 0 mm 9 mps 743 mmHg 79%
    Mostrar más